Weather History for KPCZ - February, 2014

Change the Weather History Date:

Wednesday, February 26, 2014

  Actual Average Record
Temperature  
Mean Temperature 4 °F -  
Max Temperature 14 °F 35 °F 57 °F (1976)
Min Temperature -7 °F 13 °F -20 °F (1963)
Degree Days  
Heating Degree Days 62    
Moisture  
Dew Point -9 °F    
Average Humidity 54    
Maximum Humidity 76    
Minimum Humidity 30    
Precipitation  
Precipitation 0.00 in - - ()
Sea Level Pressure  
Sea Level Pressure 29.85 in    
Wind  
Wind Speed 12 mph (WSW)    
Max Wind Speed 26 mph    
Max Gust Speed 34 mph    
Visibility 10 miles    
Events Snow    
Averages and records for this station are not official NWS values.
T = Trace of Precipitation, MM = Missing Value Source: NWS Daily Summary

Daily Weather History Graph

Daily Weather History Graph

Search for Another Location

Airport or City:

Trip Planner

Search our weather history database for the weather conditions in past years. The results will help you decide how hot, cold, wet, or windy it might be!

Date:

Astronomy

Feb. 26, 2014 Rise Set
Actual Time 6:38 AM CST 5:40 PM CST
Civil Twilight 6:09 AM CST 6:09 PM CST
Nautical Twilight 5:35 AM CST 6:43 PM CST
Astronomical Twilight 5:01 AM CST 7:16 PM CST
Moon 4:29 AM CST (2/26) 2:50 PM CST (2/26)
Length of Visible Light 12h 00m
Length of Day
11h 01m
Waning Crescent, 10% of the Moon is Illuminated
Feb 26
Waning Crescent
Mar 1
New
Mar 8
First Quarter
Mar 16
Full
Mar 23
Last Quarter

Hourly Weather History & Observations

Time (CST) Temp. Windchill Dew Point Humidity Pressure Visibility Wind Dir Wind Speed Gust Speed Precip Events Conditions
12:15 AM -0.0 °F -14.2 °F -11.2 °F 59% 30.17 in 10.0 mi West 8.1 mph - N/A   Clear
12:35 AM -0.4 °F -14.7 °F -11.6 °F 59% 30.18 in 10.0 mi West 8.1 mph - N/A   Clear
12:55 AM -1.3 °F -15.7 °F -12.5 °F 59% 30.18 in 10.0 mi West 8.1 mph - N/A   Clear
1:15 AM -2.6 °F -17.3 °F -13.0 °F 61% 30.17 in 10.0 mi West 8.1 mph - N/A   Clear
1:35 AM -3.1 °F -16.7 °F -13.2 °F 62% 30.18 in 10.0 mi West 6.9 mph - N/A   Clear
1:55 AM -3.1 °F -17.9 °F -13.4 °F 62% 30.17 in 10.0 mi West 8.1 mph - N/A   Clear
2:15 AM -3.1 °F -16.7 °F -13.4 °F 62% 30.17 in 10.0 mi West 6.9 mph - N/A   Clear
2:35 AM -3.1 °F -16.7 °F -13.4 °F 62% 30.17 in 10.0 mi West 6.9 mph - N/A   Clear
2:55 AM -3.3 °F -16.9 °F -13.5 °F 62% 30.16 in 10.0 mi West 6.9 mph - N/A   Clear
3:15 AM -3.6 °F -18.6 °F -13.9 °F 62% 30.16 in 10.0 mi West 8.1 mph - N/A   Clear
3:35 AM -3.5 °F -18.4 °F -13.9 °F 61% 30.15 in 10.0 mi West 8.1 mph - N/A   Clear
3:55 AM -4.0 °F -20.2 °F -14.3 °F 61% 30.14 in 10.0 mi West 9.2 mph - N/A   Clear
4:15 AM -4.2 °F -19.3 °F -14.8 °F 60% 30.14 in 10.0 mi West 8.1 mph - N/A   Clear
4:35 AM -4.4 °F -21.6 °F -14.8 °F 61% 30.14 in 10.0 mi West 10.4 mph - N/A   Clear
4:55 AM -4.9 °F -22.3 °F -15.2 °F 61% 30.14 in 10.0 mi West 10.4 mph - N/A   Clear
5:15 AM -5.3 °F -22.8 °F -15.3 °F 62% 30.13 in 10.0 mi West 10.4 mph - N/A   Clear
5:35 AM -5.8 °F -21.2 °F -15.7 °F 62% 30.13 in 10.0 mi West 8.1 mph - N/A   Clear
5:55 AM -6.5 °F -22.1 °F -15.9 °F 64% 30.12 in 10.0 mi West 8.1 mph - N/A   Clear
6:15 AM -7.2 °F -21.7 °F -16.6 °F 64% 30.11 in 10.0 mi WSW 6.9 mph - N/A   Clear
6:35 AM -7.2 °F -23.0 °F -16.6 °F 64% 30.09 in 10.0 mi West 8.1 mph - N/A   Clear
6:55 AM -7.6 °F -23.4 °F -16.8 °F 64% 30.09 in 10.0 mi WSW 8.1 mph - N/A   Clear
7:15 AM -6.7 °F -25.5 °F -17.0 °F 61% 30.08 in 10.0 mi WSW 11.5 mph 16.1 mph N/A   Clear
7:35 AM -6.2 °F -24.8 °F -17.0 °F 60% 30.08 in 10.0 mi West 11.5 mph - N/A   Clear
7:55 AM -5.6 °F -25.0 °F -17.5 °F 57% 30.07 in 10.0 mi West 12.7 mph 17.3 mph N/A   Clear
8:15 AM -4.9 °F -23.2 °F -17.5 °F 55% 30.06 in 10.0 mi West 11.5 mph - N/A   Clear
8:35 AM -4.0 °F -22.1 °F -17.5 °F 52% 30.04 in 10.0 mi WSW 11.5 mph - N/A   Clear
8:55 AM -2.9 °F -19.8 °F -17.5 °F 50% 30.03 in 10.0 mi West 10.4 mph - N/A   Clear
9:15 AM -1.3 °F -18.7 °F -16.8 °F 48% 30.02 in 10.0 mi SW 11.5 mph - N/A   Clear
9:35 AM -0.4 °F -16.7 °F -17.0 °F 46% 30.00 in 10.0 mi WSW 10.4 mph - N/A   Clear
9:55 AM 1.4 °F -15.3 °F -16.6 °F 43% 29.98 in 10.0 mi SW 11.5 mph - N/A   Scattered Clouds
10:15 AM 1.4 °F -15.3 °F -15.7 °F 45% 29.96 in 10.0 mi SW 11.5 mph - N/A   Mostly Cloudy
10:35 AM 3.0 °F -14.1 °F -14.8 °F 43% 29.95 in 10.0 mi SW 12.7 mph - N/A   Overcast
10:55 AM 4.6 °F -14.0 °F -14.6 °F 41% 29.93 in 10.0 mi SW 16.1 mph - N/A   Scattered Clouds
11:15 AM 5.0 °F -14.2 °F -15.3 °F 39% 29.91 in 10.0 mi SW 17.3 mph 21.9 mph N/A   Clear
11:35 AM 5.9 °F -11.8 °F -15.0 °F 38% 29.89 in 10.0 mi SW 15.0 mph 21.9 mph N/A   Clear
11:55 AM 8.2 °F -10.5 °F -13.5 °F 37% 29.86 in 10.0 mi SW 18.4 mph 23.0 mph N/A   Scattered Clouds
12:15 PM 8.6 °F -10.0 °F -14.1 °F 35% 29.84 in 10.0 mi SW 18.4 mph - N/A   Scattered Clouds
12:35 PM 10.0 °F -7.6 °F -14.1 °F 33% 29.81 in 10.0 mi SW 17.3 mph 21.9 mph N/A   Clear
12:55 PM 11.5 °F -6.7 °F -12.8 °F 33% 29.79 in 10.0 mi SW 19.6 mph 24.2 mph N/A   Clear
1:15 PM 10.9 °F -6.5 °F -13.9 °F 32% 29.76 in 10.0 mi SW 17.3 mph 26.5 mph N/A   Mostly Cloudy
1:35 PM 12.2 °F -6.7 °F -13.9 °F 30% 29.74 in 10.0 mi SW 21.9 mph 27.6 mph N/A   Overcast
1:55 PM 12.9 °F -5.7 °F -13.0 °F 31% 29.73 in 10.0 mi SW 21.9 mph 31.1 mph N/A   Scattered Clouds
2:15 PM 13.6 °F -3.9 °F -12.1 °F 31% 29.69 in 10.0 mi SW 19.6 mph 29.9 mph N/A   Scattered Clouds
2:35 PM 13.5 °F -6.5 °F -13.0 °F 30% 29.65 in 10.0 mi WSW 26.5 mph 32.2 mph N/A   Mostly Cloudy
2:55 PM 13.1 °F -5.9 °F -12.3 °F 31% 29.64 in 10.0 mi SW 23.0 mph 34.5 mph N/A   Overcast
3:15 PM 14.0 °F -3.4 °F -10.5 °F 33% 29.63 in 10.0 mi SW 19.6 mph 28.8 mph N/A   Mostly Cloudy
3:35 PM 13.8 °F -3.2 °F -8.7 °F 36% 29.61 in 10.0 mi SW 18.4 mph 32.2 mph N/A   Mostly Cloudy
3:55 PM 14.0 °F -5.8 °F -8.5 °F 36% 29.59 in 10.0 mi SW 26.5 mph 31.1 mph N/A   Scattered Clouds
4:15 PM 14.0 °F -4.3 °F -7.4 °F 38% 29.58 in 10.0 mi SW 21.9 mph 31.1 mph N/A   Clear
4:35 PM 13.8 °F -5.7 °F -5.1 °F 43% 29.58 in 10.0 mi WSW 25.3 mph 34.5 mph N/A   Clear
4:55 PM 13.1 °F -4.2 °F -4.5 °F 45% 29.58 in 10.0 mi WSW 18.4 mph 26.5 mph N/A   Clear
5:15 PM 12.9 °F -6.1 °F -3.6 °F 48% 29.58 in 10.0 mi WSW 23.0 mph - N/A   Scattered Clouds
5:35 PM 12.4 °F -6.0 °F -2.7 °F 51% 29.58 in 10.0 mi WSW 20.7 mph 27.6 mph N/A   Mostly Cloudy
5:55 PM 12.6 °F -3.3 °F -1.3 °F 54% 29.58 in 10.0 mi WSW 15.0 mph 27.6 mph N/A   Overcast
6:15 PM 12.2 °F -3.7 °F -0.0 °F 58% 29.58 in 10.0 mi WSW 15.0 mph 23.0 mph N/A   Overcast
6:35 PM 12.0 °F -4.0 °F 0.7 °F 60% 29.56 in 10.0 mi WSW 15.0 mph 18.4 mph N/A   Overcast
6:55 PM 11.7 °F -0.9 °F 1.6 °F 64% 29.56 in 10.0 mi SW 9.2 mph - N/A   Scattered Clouds
7:15 PM 10.8 °F -1.1 °F 1.8 °F 67% 29.55 in 10.0 mi SW 8.1 mph - N/A   Clear
7:35 PM 11.3 °F -0.4 °F 2.3 °F 67% 29.54 in 10.0 mi WSW 8.1 mph - N/A   Mostly Cloudy
7:55 PM 11.8 °F -1.5 °F 3.4 °F 69% 29.53 in 4.0 mi SW 10.4 mph - N/A   Haze
8:15 PM 12.2 °F -0.2 °F 5.0 °F 73% 29.54 in 3.0 mi WSW 9.2 mph - N/A Snow Light Snow
8:35 PM 12.2 °F -0.2 °F 5.7 °F 75% 29.54 in 3.0 mi WSW 9.2 mph - N/A Snow Light Snow
8:55 PM 11.1 °F -1.6 °F 5.0 °F 76% 29.54 in 10.0 mi WSW 9.2 mph - N/A   Scattered Clouds
9:15 PM 11.1 °F -1.6 °F 5.0 °F 76% 29.54 in 10.0 mi WSW 9.2 mph - N/A   Scattered Clouds
9:35 PM 12.0 °F -2.0 °F 5.0 °F 73% 29.54 in 10.0 mi West 11.5 mph 16.1 mph N/A   Scattered Clouds
9:55 PM 13.5 °F -1.5 °F 4.1 °F 66% 29.55 in 10.0 mi West 13.8 mph 23.0 mph N/A   Mostly Cloudy
10:15 PM 13.1 °F -3.1 °F 3.9 °F 67% 29.56 in 10.0 mi WNW 16.1 mph 24.2 mph N/A   Scattered Clouds
10:35 PM 12.0 °F -6.5 °F 2.3 °F 65% 29.57 in 2.5 mi NW 20.7 mph 33.4 mph N/A Snow Light Snow
10:55 PM 11.7 °F -6.0 °F -0.2 °F 59% 29.58 in 7.0 mi WNW 18.4 mph 28.8 mph N/A   Mostly Cloudy
11:15 PM 10.4 °F -7.7 °F -0.0 °F 63% 29.59 in 7.0 mi WNW 18.4 mph 26.5 mph N/A   Clear
11:35 PM 10.0 °F -6.5 °F -2.6 °F 57% 29.60 in 10.0 mi NW 15.0 mph 21.9 mph N/A   Clear
11:55 PM 9.5 °F -6.6 °F -3.3 °F 56% 29.61 in 10.0 mi WNW 13.8 mph 27.6 mph N/A   Clear